MSR959 ZGGG-HECA

Flight info

Callsign MSR959
Flight time N/A
Altitude 32100
Route VIBOS1 VIBOS R473 ZUH R200 LH R339 BSE A599 MAKUL/K0913S1040 A599 LINSO/N0493F340 A599 CTG B465 CEA A791 BPL L639 ISLIL/N0489F360 L639 RASKI N881 KIPOL L444 TOLDA M628 TULBU G652 TOKRA/N0444F280 Y511 ITRUX/N0479F360 Y511 KITUB/N0482F380 Y511 PMA Z712 WEJ W600 DARAX L677 MENLI
Aircraft B77W/H-SDE1E2E3FGHIJ2J3J4J5M1RWXY/LB1D1

Departure

Time 2026-04-28 21:12
Airport Guangzhou Baiyun International Airport (ZGGG)

Arrival

Time N/A
Airport Cairo International Airport (HECA)
Time Latitude Longitude Altitude Speed Heading
2026-04-28 20:37 23.38495 113.29161 58 ft 0 kts 282°
2026-04-28 20:57 23.38494 113.29168 58 ft 2 kts 313°
2026-04-28 20:58 23.38478 113.29176 49 ft 3 kts 351°
2026-04-28 20:58 23.38454 113.29181 49 ft 3 kts 341°
2026-04-28 20:58 23.38439 113.29188 49 ft 2 kts 325°
2026-04-28 20:58 23.38430 113.29196 49 ft 2 kts 315°
2026-04-28 20:59 23.38426 113.29201 50 ft 0 kts 309°
2026-04-28 21:04 23.38426 113.29188 51 ft 5 kts 266°
2026-04-28 21:04 23.38402 113.29126 52 ft 11 kts 237°
2026-04-28 21:04 23.38342 113.29082 55 ft 11 kts 199°
2026-04-28 21:04 23.38271 113.29099 50 ft 11 kts 171°
2026-04-28 21:05 23.38204 113.29122 52 ft 11 kts 131°
2026-04-28 21:05 23.38176 113.29197 53 ft 11 kts 107°
2026-04-28 21:05 23.38157 113.29276 53 ft 11 kts 104°
2026-04-28 21:05 23.38138 113.29355 55 ft 11 kts 104°
2026-04-28 21:06 23.38099 113.29421 51 ft 11 kts 144°
2026-04-28 21:06 23.38041 113.29473 51 ft 11 kts 128°
2026-04-28 21:06 23.38010 113.29548 54 ft 11 kts 108°
2026-04-28 21:06 23.37991 113.29627 55 ft 11 kts 103°
2026-04-28 21:07 23.37974 113.29707 54 ft 11 kts 103°
2026-04-28 21:07 23.37956 113.29788 51 ft 11 kts 104°
2026-04-28 21:07 23.37936 113.29867 55 ft 11 kts 106°
2026-04-28 21:07 23.37917 113.29947 53 ft 11 kts 104°
2026-04-28 21:08 23.37899 113.30027 52 ft 11 kts 104°
2026-04-28 21:08 23.37880 113.30107 52 ft 11 kts 104°
2026-04-28 21:08 23.37850 113.30181 51 ft 11 kts 138°
2026-04-28 21:08 23.37777 113.30195 54 ft 11 kts 172°
2026-04-28 21:09 23.37704 113.30222 52 ft 11 kts 155°
2026-04-28 21:09 23.37646 113.30273 54 ft 11 kts 122°
2026-04-28 21:09 23.37619 113.30350 54 ft 11 kts 106°
2026-04-28 21:09 23.37613 113.30371 54 ft 0 kts 105°
2026-04-28 21:10 23.37611 113.30381 43 ft 4 kts 104°
2026-04-28 21:10 23.37599 113.30432 53 ft 9 kts 104°
2026-04-28 21:11 23.37590 113.30496 56 ft 8 kts 89°
2026-04-28 21:11 23.37624 113.30547 52 ft 9 kts 34°
2026-04-28 21:11 23.37691 113.30573 52 ft 22 kts 15°
2026-04-28 21:11 23.38160 113.30699 53 ft 116 kts 14°
2026-04-28 21:12 23.39248 113.30991 53 ft 204 kts 14°
2026-04-28 21:12 23.40799 113.31434 648 ft 242 kts 15°
2026-04-28 21:12 23.41937 113.31756 1302 ft 254 kts 14°
2026-04-28 21:12 23.43893 113.32306 2391 ft 260 kts 13°
2026-04-28 21:13 23.45697 113.32798 2894 ft 276 kts 12°
2026-04-28 21:13 23.47568 113.33320 3630 ft 273 kts 17°
2026-04-28 21:13 23.49229 113.34261 4395 ft 274 kts 36°
2026-04-28 21:13 23.50613 113.35744 4950 ft 285 kts 58°
2026-04-28 21:14 23.51447 113.37731 5500 ft 291 kts 70°
2026-04-28 21:14 23.52175 113.39842 6186 ft 295 kts 69°
2026-04-28 21:14 23.52895 113.41930 6854 ft 297 kts 73°
2026-04-28 21:14 23.53098 113.44170 7359 ft 301 kts 102°
2026-04-28 21:15 23.52324 113.46261 7984 ft 297 kts 129°
2026-04-28 21:15 23.50905 113.47850 8642 ft 292 kts 145°
2026-04-28 21:15 23.49311 113.49257 9270 ft 297 kts 145°
2026-04-28 21:15 23.47692 113.50682 9950 ft 299 kts 145°
2026-04-28 21:16 23.46029 113.52078 10357 ft 306 kts 154°
2026-04-28 21:16 23.43984 113.52771 10470 ft 315 kts 183°
2026-04-28 21:16 23.41784 113.52457 10619 ft 327 kts 196°
2026-04-28 21:16 23.39491 113.51871 10795 ft 349 kts 196°
2026-04-28 21:17 23.37074 113.51244 11166 ft 363 kts 196°
2026-04-28 21:17 23.34594 113.50607 11719 ft 371 kts 196°
2026-04-28 21:17 23.32062 113.49966 12378 ft 375 kts 196°
2026-04-28 21:17 23.29502 113.49326 13135 ft 378 kts 196°
2026-04-28 21:18 23.26927 113.48687 13816 ft 381 kts 196°
2026-04-28 21:18 23.24356 113.48049 14381 ft 385 kts 197°
2026-04-28 21:18 23.21836 113.47056 14804 ft 383 kts 214°
2026-04-28 21:18 23.19816 113.45176 15312 ft 383 kts 232°
2026-04-28 21:19 23.18445 113.42716 15966 ft 382 kts 248°
2026-04-28 21:19 23.17691 113.39989 16604 ft 384 kts 260°
2026-04-28 21:19 23.17657 113.37082 17072 ft 388 kts 275°
2026-04-28 21:19 23.18053 113.34125 17490 ft 396 kts 277°
2026-04-28 21:20 23.18479 113.31155 18056 ft 399 kts 277°
2026-04-28 21:20 23.18912 113.28158 18604 ft 401 kts 277°
2026-04-28 21:20 23.19339 113.25155 19126 ft 403 kts 276°
2026-04-28 21:20 23.19761 113.22121 19610 ft 407 kts 276°
2026-04-28 21:21 23.20173 113.19096 20070 ft 410 kts 276°
2026-04-28 21:21 23.20584 113.16020 20543 ft 413 kts 276°
2026-04-28 21:21 23.20995 113.12912 21016 ft 416 kts 276°
2026-04-28 21:21 23.21406 113.09784 21490 ft 419 kts 276°
2026-04-28 21:22 23.21818 113.06622 21960 ft 422 kts 276°
2026-04-28 21:22 23.22093 113.04518 22262 ft 424 kts 276°
2026-04-28 21:22 23.22508 113.01322 22703 ft 428 kts 276°
2026-04-28 21:22 23.22923 112.98119 23139 ft 431 kts 276°
2026-04-28 21:23 23.23482 112.93808 23657 ft 435 kts 276°
2026-04-28 21:23 23.23766 112.91612 23908 ft 436 kts 276°
2026-04-28 21:23 23.24190 112.88329 24268 ft 439 kts 276°
2026-04-28 21:23 23.24616 112.85028 24629 ft 441 kts 276°
2026-04-28 21:24 23.25043 112.81713 24970 ft 444 kts 276°
2026-04-28 21:24 23.25460 112.78469 25291 ft 446 kts 276°
2026-04-28 21:24 23.25886 112.75148 25631 ft 449 kts 276°
2026-04-28 21:24 23.26317 112.71786 25964 ft 451 kts 276°
2026-04-28 21:25 23.26752 112.68385 26306 ft 454 kts 276°
2026-04-28 21:25 23.27187 112.64984 26615 ft 456 kts 276°
2026-04-28 21:25 23.27624 112.61548 26943 ft 458 kts 276°
2026-04-28 21:25 23.28064 112.58094 27251 ft 461 kts 276°
2026-04-28 21:26 23.28505 112.54620 27554 ft 463 kts 276°
2026-04-28 21:26 23.28942 112.51148 27871 ft 465 kts 275°
2026-04-28 21:26 23.29193 112.47670 28169 ft 466 kts 270°
2026-04-28 21:26 23.29245 112.44090 28438 ft 468 kts 269°
2026-04-28 21:27 23.29274 112.40588 28706 ft 471 kts 269°
2026-04-28 21:27 23.29300 112.37029 28968 ft 473 kts 269°
2026-04-28 21:27 23.29332 112.33440 29285 ft 473 kts 269°
2026-04-28 21:27 23.29370 112.29868 29701 ft 472 kts 269°
2026-04-28 21:28 23.29414 112.26307 30082 ft 470 kts 269°
2026-04-28 21:28 23.29462 112.22751 30429 ft 469 kts 270°
2026-04-28 21:28 23.29510 112.19193 30767 ft 468 kts 270°
2026-04-28 21:28 23.29559 112.15651 31103 ft 467 kts 270°
2026-04-28 21:29 23.29607 112.12121 31440 ft 466 kts 270°
2026-04-28 21:29 23.29653 112.08625 31751 ft 466 kts 269°
2026-04-28 21:29 23.29744 112.01541 31857 ft 469 kts 269°
2026-04-28 21:30 23.29831 111.94480 31859 ft 464 kts 269°
2026-04-28 21:30 23.29914 111.87436 31867 ft 462 kts 269°
2026-04-28 21:31 23.29994 111.80446 31878 ft 461 kts 269°
2026-04-28 21:31 23.30070 111.73441 31881 ft 462 kts 269°
2026-04-28 21:32 23.30142 111.66477 31871 ft 463 kts 269°
2026-04-28 21:32 23.30213 111.59452 31876 ft 465 kts 269°
2026-04-28 21:33 23.30281 111.52408 31873 ft 466 kts 269°
2026-04-28 21:33 23.30345 111.45394 31874 ft 466 kts 269°
2026-04-28 21:34 23.30407 111.38335 31872 ft 466 kts 269°
2026-04-28 21:34 23.30465 111.31269 31877 ft 466 kts 269°
2026-04-28 21:35 23.30520 111.24257 31875 ft 466 kts 269°
2026-04-28 21:35 23.30572 111.17200 31885 ft 466 kts 269°
2026-04-28 21:36 23.30621 111.10135 31886 ft 467 kts 269°
2026-04-28 21:36 23.30666 111.03065 31888 ft 467 kts 269°
2026-04-28 21:37 23.30709 110.95984 31888 ft 468 kts 269°
2026-04-28 21:37 23.30749 110.88893 31891 ft 468 kts 269°
2026-04-28 21:38 23.30784 110.81961 31894 ft 468 kts 269°
2026-04-28 21:38 23.30818 110.74868 31897 ft 468 kts 269°
2026-04-28 21:39 23.30848 110.67776 31894 ft 469 kts 269°
2026-04-28 21:39 23.30874 110.60676 31895 ft 469 kts 269°
2026-04-28 21:40 23.30898 110.53584 31897 ft 469 kts 268°
2026-04-28 21:40 23.30919 110.46495 31894 ft 468 kts 268°
2026-04-28 21:41 23.30936 110.39457 31894 ft 468 kts 268°
2026-04-28 21:41 23.30950 110.32365 31893 ft 467 kts 268°
2026-04-28 21:42 23.30961 110.25282 31893 ft 467 kts 268°
2026-04-28 21:42 23.30968 110.18248 31887 ft 467 kts 268°
2026-04-28 21:43 23.30973 110.11178 31896 ft 466 kts 268°
2026-04-28 21:43 23.30974 110.04124 31899 ft 466 kts 268°
2026-04-28 21:44 23.30972 109.97111 31904 ft 465 kts 268°
2026-04-28 21:44 23.30968 109.90057 31896 ft 465 kts 268°
2026-04-28 21:45 23.30960 109.83024 31904 ft 464 kts 268°
2026-04-28 21:45 23.30948 109.75992 31897 ft 464 kts 268°
2026-04-28 21:46 23.30934 109.69007 31905 ft 464 kts 268°
2026-04-28 21:46 23.30917 109.61984 31904 ft 464 kts 268°
2026-04-28 21:47 23.30897 109.55010 31904 ft 463 kts 268°
2026-04-28 21:47 23.30873 109.47993 31906 ft 463 kts 268°
2026-04-28 21:48 23.30846 109.40975 31916 ft 463 kts 268°
2026-04-28 21:48 23.30817 109.34001 31907 ft 463 kts 268°
2026-04-28 21:49 23.30784 109.26982 31909 ft 463 kts 267°
2026-04-28 21:49 23.30747 109.19960 31920 ft 464 kts 267°
2026-04-28 21:50 23.30708 109.12980 31909 ft 464 kts 267°
2026-04-28 21:50 23.30666 109.05957 31917 ft 464 kts 267°
2026-04-28 21:51 23.30621 108.98945 31913 ft 464 kts 267°
2026-04-28 21:51 23.30572 108.91938 31912 ft 464 kts 267°
2026-04-28 21:52 23.30520 108.84897 31919 ft 464 kts 267°
2026-04-28 21:52 23.30465 108.77864 31925 ft 465 kts 267°
2026-04-28 21:53 23.30407 108.70817 31926 ft 465 kts 267°
2026-04-28 21:53 23.30347 108.63825 31910 ft 465 kts 267°
2026-04-28 21:54 23.30282 108.56790 31913 ft 464 kts 267°
2026-04-28 21:54 23.30214 108.49759 31915 ft 465 kts 266°
2026-04-28 21:55 23.30144 108.42709 31919 ft 465 kts 266°
2026-04-28 21:55 23.30070 108.35696 31923 ft 466 kts 266°
2026-04-28 21:56 23.29993 108.28644 31913 ft 466 kts 266°
2026-04-28 21:56 23.29913 108.21578 31916 ft 466 kts 266°
2026-04-28 21:57 23.29829 108.14527 31916 ft 466 kts 266°
2026-04-28 21:57 23.29743 108.07514 31928 ft 466 kts 266°
2026-04-28 21:58 23.29653 108.00451 31930 ft 466 kts 266°
2026-04-28 21:58 23.29561 107.93384 31929 ft 466 kts 266°
2026-04-28 21:59 23.29464 107.86378 31933 ft 466 kts 266°
2026-04-28 22:00 23.29315 107.75773 31952 ft 466 kts 266°
2026-04-28 22:00 23.29211 107.68704 31948 ft 467 kts 266°
2026-04-28 22:01 23.29105 107.61686 31946 ft 467 kts 266°
2026-04-28 22:01 23.28993 107.54617 31960 ft 466 kts 266°
2026-04-28 22:02 23.28880 107.47552 31956 ft 466 kts 266°
2026-04-28 22:02 23.28764 107.40536 31969 ft 466 kts 266°
2026-04-28 22:03 23.28644 107.33466 31967 ft 466 kts 266°
2026-04-28 22:03 23.28541 107.27595 31974 ft 466 kts 266°
2026-04-28 22:04 23.28417 107.20537 31980 ft 466 kts 266°
2026-04-28 22:04 23.28292 107.13502 31982 ft 466 kts 266°
2026-04-28 22:05 23.28157 107.06438 31981 ft 467 kts 266°
2026-04-28 22:05 23.28020 106.99366 31982 ft 466 kts 266°
2026-04-28 22:06 23.27883 106.92351 31988 ft 466 kts 266°
2026-04-28 22:06 23.27742 106.85298 31986 ft 467 kts 266°
2026-04-28 22:07 23.27597 106.78220 31994 ft 466 kts 266°
2026-04-28 22:07 23.27451 106.71173 31993 ft 466 kts 266°